Year,Month,Day,Hour,Minute,Value (Times are PST for temperature in C)
2011,08,07,00,00,14.80
2011,08,07,00,01,14.80
2011,08,07,00,02,14.80
2011,08,07,00,03,14.80
2011,08,07,00,04,14.80
2011,08,07,00,05,14.90
2011,08,07,00,06,14.90
2011,08,07,00,07,14.90
2011,08,07,00,08,15.00
2011,08,07,00,09,15.00
2011,08,07,00,10,14.90
2011,08,07,00,11,14.90
2011,08,07,00,12,14.90
2011,08,07,00,13,14.90
2011,08,07,00,14,14.90
2011,08,07,00,15,14.90
2011,08,07,00,16,14.90
2011,08,07,00,17,14.90
2011,08,07,00,18,14.80
2011,08,07,00,19,14.80
2011,08,07,00,20,14.80
2011,08,07,00,21,14.80
2011,08,07,00,22,14.80
2011,08,07,00,23,14.80
2011,08,07,00,24,14.80
2011,08,07,00,25,14.80
2011,08,07,00,26,14.80
2011,08,07,00,27,14.80
2011,08,07,00,28,14.80
2011,08,07,00,29,14.80
2011,08,07,00,30,14.80
2011,08,07,00,31,14.80
2011,08,07,00,32,14.80
2011,08,07,00,33,14.70
2011,08,07,00,34,14.70
2011,08,07,00,35,14.70
2011,08,07,00,36,14.70
2011,08,07,00,37,14.70
2011,08,07,00,38,14.70
2011,08,07,00,39,14.70
2011,08,07,00,40,14.70
2011,08,07,00,41,14.70
2011,08,07,00,42,14.70
2011,08,07,00,43,14.70
2011,08,07,00,44,14.70
2011,08,07,00,45,14.70
2011,08,07,00,46,14.70
2011,08,07,00,47,14.60
2011,08,07,00,48,14.60
2011,08,07,00,49,14.60
2011,08,07,00,50,14.60
2011,08,07,00,51,14.60
2011,08,07,00,52,14.60
2011,08,07,00,53,14.50
2011,08,07,00,54,14.50
2011,08,07,00,55,14.50
2011,08,07,00,56,14.50
2011,08,07,00,57,14.50
2011,08,07,00,58,14.50
2011,08,07,00,59,14.50
2011,08,07,01,00,14.40
2011,08,07,01,01,14.40
2011,08,07,01,02,14.40
2011,08,07,01,03,14.40
2011,08,07,01,04,14.40
2011,08,07,01,05,14.40
2011,08,07,01,06,14.40
2011,08,07,01,07,14.40
2011,08,07,01,08,14.40
2011,08,07,01,09,14.40
2011,08,07,01,10,14.40
2011,08,07,01,11,14.40
2011,08,07,01,12,14.30
2011,08,07,01,13,14.30
2011,08,07,01,14,14.30
2011,08,07,01,15,14.30
2011,08,07,01,16,14.30
2011,08,07,01,17,14.30
2011,08,07,01,18,14.30
2011,08,07,01,19,14.30
2011,08,07,01,20,14.30
2011,08,07,01,21,14.30
2011,08,07,01,22,14.30
2011,08,07,01,23,14.30
2011,08,07,01,24,14.30
2011,08,07,01,25,14.30
2011,08,07,01,26,14.40
2011,08,07,01,27,14.40
2011,08,07,01,28,14.40
2011,08,07,01,29,14.40
2011,08,07,01,30,14.40
2011,08,07,01,31,14.40
2011,08,07,01,32,14.40
2011,08,07,01,33,14.40
2011,08,07,01,34,14.40
2011,08,07,01,35,14.40
2011,08,07,01,36,14.50
2011,08,07,01,37,14.50
2011,08,07,01,38,14.50
2011,08,07,01,39,14.50
2011,08,07,01,40,14.50
2011,08,07,01,41,14.40
2011,08,07,01,42,14.40
2011,08,07,01,43,14.40
2011,08,07,01,44,14.40
2011,08,07,01,45,14.30
2011,08,07,01,46,14.30
2011,08,07,01,47,14.30
2011,08,07,01,48,14.30
2011,08,07,01,49,14.20
2011,08,07,01,50,14.20
2011,08,07,01,51,14.20
2011,08,07,01,52,14.20
2011,08,07,01,53,14.20
2011,08,07,01,54,14.20
2011,08,07,01,55,14.20
2011,08,07,01,56,14.20
2011,08,07,01,57,14.10
2011,08,07,01,58,14.10
2011,08,07,01,59,14.10
2011,08,07,02,00,14.10
2011,08,07,02,01,14.10
2011,08,07,02,02,14.10
2011,08,07,02,03,14.10
2011,08,07,02,04,14.10
2011,08,07,02,05,14.10
2011,08,07,02,06,14.10
2011,08,07,02,07,14.10
2011,08,07,02,08,14.10
2011,08,07,02,09,14.10
2011,08,07,02,10,14.10
2011,08,07,02,11,14.10
2011,08,07,02,12,14.10
2011,08,07,02,13,14.10
2011,08,07,02,14,14.10
2011,08,07,02,15,14.10
2011,08,07,02,16,14.20
2011,08,07,02,17,14.10
2011,08,07,02,18,14.10
2011,08,07,02,19,14.10
2011,08,07,02,20,14.10
2011,08,07,02,21,14.10
2011,08,07,02,22,14.10
2011,08,07,02,23,14.00
2011,08,07,02,24,14.00
2011,08,07,02,25,14.00
2011,08,07,02,26,14.00
2011,08,07,02,27,14.00
2011,08,07,02,28,14.00
2011,08,07,02,29,14.00
2011,08,07,02,30,14.00
2011,08,07,02,31,14.00
2011,08,07,02,32,14.00
2011,08,07,02,33,14.00
2011,08,07,02,34,14.00
2011,08,07,02,35,13.90
2011,08,07,02,36,13.90
2011,08,07,02,37,13.90
2011,08,07,02,38,13.90
2011,08,07,02,39,13.90
2011,08,07,02,40,13.90
2011,08,07,02,41,13.80
2011,08,07,02,42,13.70
2011,08,07,02,43,13.60
2011,08,07,02,44,13.50
2011,08,07,02,45,13.40
2011,08,07,02,46,13.30
2011,08,07,02,47,13.30
2011,08,07,02,48,13.20
2011,08,07,02,49,13.10
2011,08,07,02,50,13.10
2011,08,07,02,51,13.00
2011,08,07,02,52,13.00
2011,08,07,02,53,13.00
2011,08,07,02,54,12.90
2011,08,07,02,55,12.90
2011,08,07,02,56,12.90
2011,08,07,02,57,12.90
2011,08,07,02,58,12.80
2011,08,07,02,59,12.80
2011,08,07,03,00,12.80
2011,08,07,03,01,12.80
2011,08,07,03,02,12.70
2011,08,07,03,03,12.70
2011,08,07,03,04,12.60
2011,08,07,03,05,12.60
2011,08,07,03,06,12.60
2011,08,07,03,07,12.50
2011,08,07,03,08,12.50
2011,08,07,03,09,12.40
2011,08,07,03,10,12.40
2011,08,07,03,11,12.30
2011,08,07,03,12,12.30
2011,08,07,03,13,12.30
2011,08,07,03,14,12.30
2011,08,07,03,15,12.30
2011,08,07,03,16,12.20
2011,08,07,03,17,12.20
2011,08,07,03,18,12.20
2011,08,07,03,19,12.20
2011,08,07,03,20,12.20
2011,08,07,03,21,12.10
2011,08,07,03,22,12.10
2011,08,07,03,23,12.10
2011,08,07,03,24,12.10
2011,08,07,03,25,12.10
2011,08,07,03,26,12.10
2011,08,07,03,27,12.10
2011,08,07,03,28,12.00
2011,08,07,03,29,12.00
2011,08,07,03,30,12.00
2011,08,07,03,31,12.00
2011,08,07,03,32,12.00
2011,08,07,03,33,12.00
2011,08,07,03,34,12.00
2011,08,07,03,35,12.00
2011,08,07,03,36,12.00
2011,08,07,03,37,12.00
2011,08,07,03,38,12.00
2011,08,07,03,39,12.00
2011,08,07,03,40,12.00
2011,08,07,03,41,11.90
2011,08,07,03,42,11.90
2011,08,07,03,43,11.90
2011,08,07,03,44,11.90
2011,08,07,03,45,11.90
2011,08,07,03,46,11.90
2011,08,07,03,47,11.90
2011,08,07,03,48,11.90
2011,08,07,03,49,11.90
2011,08,07,03,50,11.90
2011,08,07,03,51,11.90
2011,08,07,03,52,11.90
2011,08,07,03,53,11.90
2011,08,07,03,54,11.90
2011,08,07,03,55,11.90
2011,08,07,03,56,11.90
2011,08,07,03,57,11.90
2011,08,07,03,58,11.90
2011,08,07,03,59,11.90
2011,08,07,04,00,11.90
2011,08,07,04,01,11.90
2011,08,07,04,02,11.90
2011,08,07,04,03,11.90
2011,08,07,04,04,11.90
2011,08,07,04,05,11.90
2011,08,07,04,06,11.90
2011,08,07,04,07,11.90
2011,08,07,04,08,11.90
2011,08,07,04,09,11.90
2011,08,07,04,10,11.90
2011,08,07,04,11,11.90
2011,08,07,04,12,11.90
2011,08,07,04,13,11.90
2011,08,07,04,14,11.90
2011,08,07,04,15,11.90
2011,08,07,04,16,11.90
2011,08,07,04,17,11.90
2011,08,07,04,18,11.90
2011,08,07,04,19,11.90
2011,08,07,04,20,11.90
2011,08,07,04,21,11.90
2011,08,07,04,22,11.90
2011,08,07,04,23,11.80
2011,08,07,04,24,11.80
2011,08,07,04,25,11.80
2011,08,07,04,26,11.90
2011,08,07,04,27,11.90
2011,08,07,04,28,11.90
2011,08,07,04,29,11.90
2011,08,07,04,30,11.90
2011,08,07,04,31,11.90
2011,08,07,04,32,11.80
2011,08,07,04,33,11.80
2011,08,07,04,34,11.80
2011,08,07,04,35,11.80
2011,08,07,04,36,11.80
2011,08,07,04,37,11.80
2011,08,07,04,38,11.80
2011,08,07,04,39,11.80
2011,08,07,04,40,11.80
2011,08,07,04,41,11.80
2011,08,07,04,42,11.80
2011,08,07,04,43,11.80
2011,08,07,04,44,11.80
2011,08,07,04,45,11.80
2011,08,07,04,46,11.80
2011,08,07,04,47,11.80
2011,08,07,04,48,11.80
2011,08,07,04,49,11.80
2011,08,07,04,50,11.80
2011,08,07,04,51,11.80
2011,08,07,04,52,11.80
2011,08,07,04,53,11.80
2011,08,07,04,54,11.80
2011,08,07,04,55,11.80
2011,08,07,04,56,11.80
2011,08,07,04,57,11.80
2011,08,07,04,58,11.80
2011,08,07,04,59,11.80
2011,08,07,05,00,11.80
2011,08,07,05,01,11.80
2011,08,07,05,02,11.80
2011,08,07,05,03,11.80
2011,08,07,05,04,11.80
2011,08,07,05,05,11.80
2011,08,07,05,06,11.80
2011,08,07,05,07,11.80
2011,08,07,05,08,11.80
2011,08,07,05,09,11.80
2011,08,07,05,10,11.80
2011,08,07,05,11,11.80
2011,08,07,05,12,11.80
2011,08,07,05,13,11.80
2011,08,07,05,14,11.80
2011,08,07,05,15,11.80
2011,08,07,05,16,11.80
2011,08,07,05,17,11.70
2011,08,07,05,18,11.70
2011,08,07,05,19,11.70
2011,08,07,05,20,11.70
2011,08,07,05,21,11.70
2011,08,07,05,22,11.70
2011,08,07,05,23,11.70
2011,08,07,05,24,11.70
2011,08,07,05,25,11.70
2011,08,07,05,26,11.70
2011,08,07,05,27,11.70
2011,08,07,05,28,11.70
2011,08,07,05,29,11.70
2011,08,07,05,30,11.70
2011,08,07,05,31,11.70
2011,08,07,05,32,11.70
2011,08,07,05,33,11.70
2011,08,07,05,34,11.70
2011,08,07,05,35,11.70
2011,08,07,05,36,11.70
2011,08,07,05,37,11.70
2011,08,07,05,38,11.70
2011,08,07,05,39,11.70
2011,08,07,05,40,11.70
2011,08,07,05,41,11.70
2011,08,07,05,42,11.70
2011,08,07,05,43,11.70
2011,08,07,05,44,11.70
2011,08,07,05,45,11.70
2011,08,07,05,46,11.70
2011,08,07,05,47,11.70
2011,08,07,05,48,11.60
2011,08,07,05,49,11.60
2011,08,07,05,50,11.60
2011,08,07,05,51,11.60
2011,08,07,05,52,11.60
2011,08,07,05,53,11.60
2011,08,07,05,54,11.60
2011,08,07,05,55,11.60
2011,08,07,05,56,11.60
2011,08,07,05,57,11.60
2011,08,07,05,58,11.60
2011,08,07,05,59,11.60
2011,08,07,06,00,11.60
2011,08,07,06,01,11.60
2011,08,07,06,02,11.60
2011,08,07,06,03,11.60
2011,08,07,06,04,11.60
2011,08,07,06,05,11.60
2011,08,07,06,06,11.60
2011,08,07,06,07,11.60
2011,08,07,06,08,11.60
2011,08,07,06,09,11.60
2011,08,07,06,10,11.60
2011,08,07,06,11,11.60
2011,08,07,06,12,11.60
2011,08,07,06,13,11.60
2011,08,07,06,14,11.60
2011,08,07,06,15,11.60
2011,08,07,06,16,11.60
2011,08,07,06,17,11.60
2011,08,07,06,18,11.60
2011,08,07,06,19,11.60
2011,08,07,06,20,11.60
2011,08,07,06,21,11.60
2011,08,07,06,22,11.60
2011,08,07,06,23,11.60
2011,08,07,06,24,11.60
2011,08,07,06,25,11.70
2011,08,07,06,26,11.70
2011,08,07,06,27,11.70
2011,08,07,06,28,11.70
2011,08,07,06,29,11.80
2011,08,07,06,30,11.80
2011,08,07,06,31,11.80
2011,08,07,06,32,11.90
2011,08,07,06,33,11.90
2011,08,07,06,34,12.00
2011,08,07,06,35,12.10
2011,08,07,06,36,12.10
2011,08,07,06,37,12.20
2011,08,07,06,38,12.20
2011,08,07,06,39,12.30
2011,08,07,06,40,12.40
2011,08,07,06,41,12.40
2011,08,07,06,42,12.50
2011,08,07,06,43,12.60
2011,08,07,06,44,12.60
2011,08,07,06,45,12.70
2011,08,07,06,46,12.80
2011,08,07,06,47,12.80
2011,08,07,06,48,12.80
2011,08,07,06,49,12.80
2011,08,07,06,50,12.90
2011,08,07,06,51,12.90
2011,08,07,06,52,12.90
2011,08,07,06,53,13.00
2011,08,07,06,54,13.00
2011,08,07,06,55,13.00
2011,08,07,06,56,13.00
2011,08,07,06,57,13.00
2011,08,07,06,58,13.00
2011,08,07,06,59,13.00
2011,08,07,07,00,13.00
2011,08,07,07,01,13.00
2011,08,07,07,02,13.00
2011,08,07,07,03,13.10
2011,08,07,07,04,13.10
2011,08,07,07,05,13.10
2011,08,07,07,06,13.10
2011,08,07,07,07,13.20
2011,08,07,07,08,13.20
2011,08,07,07,09,13.20
2011,08,07,07,10,13.30
2011,08,07,07,11,13.30
2011,08,07,07,12,13.30
2011,08,07,07,13,13.30
2011,08,07,07,14,13.30
2011,08,07,07,15,13.20
2011,08,07,07,16,13.30
2011,08,07,07,17,13.30
2011,08,07,07,18,13.20
2011,08,07,07,19,13.20
2011,08,07,07,20,13.10
2011,08,07,07,21,13.10
2011,08,07,07,22,13.00
2011,08,07,07,23,13.00
2011,08,07,07,24,12.90
2011,08,07,07,25,12.80
2011,08,07,07,26,12.80
2011,08,07,07,27,12.70
2011,08,07,07,28,12.60
2011,08,07,07,29,12.60
2011,08,07,07,30,12.60
2011,08,07,07,31,12.50
2011,08,07,07,32,12.50
2011,08,07,07,33,12.50
2011,08,07,07,34,12.40
2011,08,07,07,35,12.40
2011,08,07,07,36,12.40
2011,08,07,07,37,12.40
2011,08,07,07,38,12.40
2011,08,07,07,39,12.40
2011,08,07,07,40,12.40
2011,08,07,07,41,12.40
2011,08,07,07,42,12.40
2011,08,07,07,43,12.40
2011,08,07,07,44,12.40
2011,08,07,07,45,12.40
2011,08,07,07,46,12.40
2011,08,07,07,47,12.40
2011,08,07,07,48,12.40
2011,08,07,07,49,12.40
2011,08,07,07,50,12.40
2011,08,07,07,51,12.40
2011,08,07,07,52,12.40
2011,08,07,07,53,12.40
2011,08,07,07,54,12.40
2011,08,07,07,55,12.40
2011,08,07,07,56,12.40
2011,08,07,07,57,12.40
2011,08,07,07,58,12.40
2011,08,07,07,59,12.40
2011,08,07,08,00,12.40
2011,08,07,08,01,12.40
2011,08,07,08,02,12.30
2011,08,07,08,03,12.30
2011,08,07,08,04,12.30
2011,08,07,08,05,12.30
2011,08,07,08,06,12.30
2011,08,07,08,07,12.30
2011,08,07,08,08,12.30
2011,08,07,08,09,12.30
2011,08,07,08,10,12.40
2011,08,07,08,11,12.40
2011,08,07,08,12,12.40
2011,08,07,08,13,12.40
2011,08,07,08,14,12.40
2011,08,07,08,15,12.50
2011,08,07,08,16,12.50
2011,08,07,08,17,12.60
2011,08,07,08,18,12.60
2011,08,07,08,19,12.60
2011,08,07,08,20,12.70
2011,08,07,08,21,12.70
2011,08,07,08,22,12.80
2011,08,07,08,23,12.80
2011,08,07,08,24,12.80
2011,08,07,08,25,12.90
2011,08,07,08,26,12.90
2011,08,07,08,27,13.00
2011,08,07,08,28,13.00
2011,08,07,08,29,13.00
2011,08,07,08,30,13.00
2011,08,07,08,31,13.10
2011,08,07,08,32,13.10
2011,08,07,08,33,13.10
2011,08,07,08,34,13.20
2011,08,07,08,35,13.20
2011,08,07,08,36,13.30
2011,08,07,08,37,13.30
2011,08,07,08,38,13.30
2011,08,07,08,39,13.30
2011,08,07,08,40,13.30
2011,08,07,08,41,13.40
2011,08,07,08,42,13.40
2011,08,07,08,43,13.50
2011,08,07,08,44,13.50
2011,08,07,08,45,13.50
2011,08,07,08,46,13.50
2011,08,07,08,47,13.50
2011,08,07,08,48,13.60
2011,08,07,08,49,13.60
2011,08,07,08,50,13.70
2011,08,07,08,51,13.70
2011,08,07,08,52,13.70
2011,08,07,08,53,13.70
2011,08,07,08,54,13.70
2011,08,07,08,55,13.60
2011,08,07,08,56,13.60
2011,08,07,08,57,13.60
2011,08,07,08,58,13.60
2011,08,07,08,59,13.60
2011,08,07,09,00,13.60
2011,08,07,09,01,13.60
2011,08,07,09,02,13.60
2011,08,07,09,03,13.50
2011,08,07,09,04,13.40
2011,08,07,09,05,13.40
2011,08,07,09,06,13.40
2011,08,07,09,07,13.30
2011,08,07,09,08,13.30
2011,08,07,09,09,13.30
2011,08,07,09,10,13.40
2011,08,07,09,11,13.30
2011,08,07,09,12,13.30
2011,08,07,09,13,13.40
2011,08,07,09,14,13.50
2011,08,07,09,15,13.60
2011,08,07,09,16,13.60
2011,08,07,09,17,13.70
2011,08,07,09,18,13.70
2011,08,07,09,19,13.80
2011,08,07,09,20,13.90
2011,08,07,09,21,13.90
2011,08,07,09,22,14.10
2011,08,07,09,23,14.20
2011,08,07,09,24,14.20
2011,08,07,09,25,14.30
2011,08,07,09,26,14.30
2011,08,07,09,27,14.40
2011,08,07,09,28,14.50
2011,08,07,09,29,14.60
2011,08,07,09,30,14.70
2011,08,07,09,31,14.70
2011,08,07,09,32,14.80
2011,08,07,09,33,14.80
2011,08,07,09,34,14.90
2011,08,07,09,35,14.90
2011,08,07,09,36,14.90
2011,08,07,09,37,15.00
2011,08,07,09,38,15.00
2011,08,07,09,39,15.00
2011,08,07,09,40,15.10
2011,08,07,09,41,15.20
2011,08,07,09,42,15.20
2011,08,07,09,43,15.30
2011,08,07,09,44,15.30
2011,08,07,09,45,15.30
2011,08,07,09,46,15.40
2011,08,07,09,47,15.40
2011,08,07,09,48,15.50
2011,08,07,09,49,15.50
2011,08,07,09,50,15.50
2011,08,07,09,51,15.40
2011,08,07,09,52,15.40
2011,08,07,09,53,15.40
2011,08,07,09,54,15.40
2011,08,07,09,55,15.50
2011,08,07,09,56,15.40
2011,08,07,09,57,15.40
2011,08,07,09,58,15.30
2011,08,07,09,59,15.30
2011,08,07,10,00,15.30
2011,08,07,10,01,15.20
2011,08,07,10,02,15.20
2011,08,07,10,03,15.20
2011,08,07,10,04,15.30
2011,08,07,10,05,15.30
2011,08,07,10,06,15.50
2011,08,07,10,07,15.60
2011,08,07,10,08,15.70
2011,08,07,10,09,15.80
2011,08,07,10,10,15.80
2011,08,07,10,11,15.80
2011,08,07,10,12,15.80
2011,08,07,10,13,15.80
2011,08,07,10,14,15.80
2011,08,07,10,15,15.80
2011,08,07,10,16,15.80
2011,08,07,10,17,15.90
2011,08,07,10,18,16.00
2011,08,07,10,19,16.10
2011,08,07,10,20,16.10
2011,08,07,10,21,16.20
2011,08,07,10,22,16.30
2011,08,07,10,23,16.40
2011,08,07,10,24,16.40
2011,08,07,10,25,16.40
2011,08,07,10,26,16.40
2011,08,07,10,27,16.40
2011,08,07,10,28,16.50
2011,08,07,10,29,16.60
2011,08,07,10,30,16.60
2011,08,07,10,31,16.60
2011,08,07,10,32,16.60
2011,08,07,10,33,16.60
2011,08,07,10,34,16.60
2011,08,07,10,35,16.70
2011,08,07,10,36,16.70
2011,08,07,10,37,16.70
2011,08,07,10,38,16.70
2011,08,07,10,39,16.70
2011,08,07,10,40,16.70
2011,08,07,10,41,16.70
2011,08,07,10,42,16.70
2011,08,07,10,43,16.70
2011,08,07,10,44,16.70
2011,08,07,10,45,16.80
2011,08,07,10,46,16.80
2011,08,07,10,47,16.80
2011,08,07,10,48,16.90
2011,08,07,10,49,17.00
2011,08,07,10,50,17.10
2011,08,07,10,51,17.10
2011,08,07,10,52,17.10
2011,08,07,10,53,17.10
2011,08,07,10,54,17.00
2011,08,07,10,55,17.00
2011,08,07,10,56,17.00
2011,08,07,10,57,17.00
2011,08,07,10,58,17.00
2011,08,07,10,59,17.10
2011,08,07,11,00,17.10
2011,08,07,11,01,17.30
2011,08,07,11,02,17.30
2011,08,07,11,03,17.30
2011,08,07,11,04,17.40
2011,08,07,11,05,17.50
2011,08,07,11,06,17.60
2011,08,07,11,07,17.80
2011,08,07,11,08,17.80
2011,08,07,11,09,17.80
2011,08,07,11,10,17.80
2011,08,07,11,11,17.90
2011,08,07,11,12,17.90
2011,08,07,11,13,17.90
2011,08,07,11,14,17.90
2011,08,07,11,15,17.80
2011,08,07,11,16,17.80
2011,08,07,11,17,18.00
2011,08,07,11,18,18.10
2011,08,07,11,19,18.10
2011,08,07,11,20,18.20
2011,08,07,11,21,18.20
2011,08,07,11,22,18.20
2011,08,07,11,23,18.20
2011,08,07,11,24,18.20
2011,08,07,11,25,18.20
2011,08,07,11,26,18.20
2011,08,07,11,27,18.20
2011,08,07,11,28,18.20
2011,08,07,11,29,18.40
2011,08,07,11,30,18.60
2011,08,07,11,31,18.60
2011,08,07,11,32,18.70
2011,08,07,11,33,18.80
2011,08,07,11,34,18.80
2011,08,07,11,35,18.80
2011,08,07,11,36,18.60
2011,08,07,11,37,18.70
2011,08,07,11,38,18.70
2011,08,07,11,39,18.80
2011,08,07,11,40,18.90
2011,08,07,11,41,18.80
2011,08,07,11,42,18.80
2011,08,07,11,43,18.80
2011,08,07,11,44,18.70
2011,08,07,11,45,18.70
2011,08,07,11,46,18.80
2011,08,07,11,47,18.80
2011,08,07,11,48,18.80
2011,08,07,11,49,18.70
2011,08,07,11,50,18.60
2011,08,07,11,51,18.50
2011,08,07,11,52,18.50
2011,08,07,11,53,18.60
2011,08,07,11,54,18.80
2011,08,07,11,55,19.00
2011,08,07,11,56,19.20
2011,08,07,11,57,19.30
2011,08,07,11,58,19.40
2011,08,07,11,59,19.30
2011,08,07,12,00,19.20
2011,08,07,12,01,19.10
2011,08,07,12,02,19.00
2011,08,07,12,03,18.90
2011,08,07,12,04,18.90
2011,08,07,12,05,18.90
2011,08,07,12,06,18.90
2011,08,07,12,07,19.00
2011,08,07,12,08,19.10
2011,08,07,12,09,19.10
2011,08,07,12,10,19.10
2011,08,07,12,11,19.10
2011,08,07,12,12,19.10
2011,08,07,12,13,19.10
2011,08,07,12,14,19.00
2011,08,07,12,15,18.90
2011,08,07,12,16,18.90
2011,08,07,12,17,18.90
2011,08,07,12,18,19.00
2011,08,07,12,19,19.20
2011,08,07,12,20,19.30
2011,08,07,12,21,19.40
2011,08,07,12,22,19.40
2011,08,07,12,23,19.40
2011,08,07,12,24,19.30
2011,08,07,12,25,19.20
2011,08,07,12,26,19.20
2011,08,07,12,27,19.20
2011,08,07,12,28,19.30
2011,08,07,12,29,19.30
2011,08,07,12,30,19.40
2011,08,07,12,31,19.40
2011,08,07,12,32,19.40
2011,08,07,12,33,19.40
2011,08,07,12,34,19.40
2011,08,07,12,35,19.40
2011,08,07,12,36,19.60
2011,08,07,12,37,19.50
2011,08,07,12,38,19.60
2011,08,07,12,39,19.70
2011,08,07,12,40,19.70
2011,08,07,12,41,19.70
2011,08,07,12,42,19.60
2011,08,07,12,43,19.50
2011,08,07,12,44,19.50
2011,08,07,12,45,19.50
2011,08,07,12,46,19.60
2011,08,07,12,47,19.70
2011,08,07,12,48,19.70
2011,08,07,12,49,19.70
2011,08,07,12,50,19.80
2011,08,07,12,51,19.70
2011,08,07,12,52,19.60
2011,08,07,12,53,19.50
2011,08,07,12,54,19.60
2011,08,07,12,55,19.60
2011,08,07,12,56,19.60
2011,08,07,12,57,19.60
2011,08,07,12,58,19.60
2011,08,07,12,59,19.60
2011,08,07,13,00,19.60
2011,08,07,13,01,19.60
2011,08,07,13,02,19.60
2011,08,07,13,03,19.50
2011,08,07,13,04,19.50
2011,08,07,13,05,19.50
2011,08,07,13,06,19.60
2011,08,07,13,07,19.60
2011,08,07,13,08,19.50
2011,08,07,13,09,19.40
2011,08,07,13,10,19.30
2011,08,07,13,11,19.40
2011,08,07,13,12,19.40
2011,08,07,13,13,19.30
2011,08,07,13,14,19.30
2011,08,07,13,15,19.20
2011,08,07,13,16,19.30
2011,08,07,13,17,19.40
2011,08,07,13,18,19.50
2011,08,07,13,19,19.60
2011,08,07,13,20,19.50
2011,08,07,13,21,19.40
2011,08,07,13,22,19.50
2011,08,07,13,23,19.50
2011,08,07,13,24,19.40
2011,08,07,13,25,19.50
2011,08,07,13,26,19.50
2011,08,07,13,27,19.50
2011,08,07,13,28,19.50
2011,08,07,13,29,19.40
2011,08,07,13,30,19.40
2011,08,07,13,31,19.40
2011,08,07,13,32,19.30
2011,08,07,13,33,19.30
2011,08,07,13,34,19.20
2011,08,07,13,35,19.10
2011,08,07,13,36,19.10
2011,08,07,13,37,19.20
2011,08,07,13,38,19.30
2011,08,07,13,39,19.40
2011,08,07,13,40,19.40
2011,08,07,13,41,19.40
2011,08,07,13,42,19.30
2011,08,07,13,43,19.40
2011,08,07,13,44,19.40
2011,08,07,13,45,19.60
2011,08,07,13,46,19.70
2011,08,07,13,47,19.60
2011,08,07,13,48,19.50
2011,08,07,13,49,19.40
2011,08,07,13,50,19.40
2011,08,07,13,51,19.40
2011,08,07,13,52,19.40
2011,08,07,13,53,19.40
2011,08,07,13,54,19.50
2011,08,07,13,55,19.60
2011,08,07,13,56,19.60
2011,08,07,13,57,19.50
2011,08,07,13,58,19.40
2011,08,07,13,59,19.30
2011,08,07,14,00,19.30
2011,08,07,14,01,19.20
2011,08,07,14,02,19.30
2011,08,07,14,03,19.30
2011,08,07,14,04,19.30
2011,08,07,14,05,19.30
2011,08,07,14,06,19.30
2011,08,07,14,07,19.20
2011,08,07,14,08,19.30
2011,08,07,14,09,19.40
2011,08,07,14,10,19.50
2011,08,07,14,11,19.50
2011,08,07,14,12,19.50
2011,08,07,14,13,19.40
2011,08,07,14,14,19.20
2011,08,07,14,15,19.00
2011,08,07,14,16,18.90
2011,08,07,14,17,18.80
2011,08,07,14,18,18.70
2011,08,07,14,19,18.70
2011,08,07,14,20,18.50
2011,08,07,14,21,18.60
2011,08,07,14,22,18.50
2011,08,07,14,23,18.40
2011,08,07,14,24,18.30
2011,08,07,14,25,18.40
2011,08,07,14,26,18.60
2011,08,07,14,27,18.70
2011,08,07,14,28,18.80
2011,08,07,14,29,18.80
2011,08,07,14,30,18.80
2011,08,07,14,31,18.70
2011,08,07,14,32,18.80
2011,08,07,14,33,18.80
2011,08,07,14,34,18.80
2011,08,07,14,35,18.90
2011,08,07,14,36,18.80
2011,08,07,14,37,18.70
2011,08,07,14,38,18.50
2011,08,07,14,39,18.30
2011,08,07,14,40,18.20
2011,08,07,14,41,18.20
2011,08,07,14,42,18.20
2011,08,07,14,43,18.20
2011,08,07,14,44,18.20
2011,08,07,14,45,18.20
2011,08,07,14,46,18.10
2011,08,07,14,47,17.90
2011,08,07,14,48,17.90
2011,08,07,14,49,17.90
2011,08,07,14,50,17.80
2011,08,07,14,51,17.80
2011,08,07,14,52,17.80
2011,08,07,14,53,17.80
2011,08,07,14,54,17.70
2011,08,07,14,55,17.70
2011,08,07,14,56,17.60
2011,08,07,14,57,17.50
2011,08,07,14,58,17.50
2011,08,07,14,59,17.40
2011,08,07,15,00,17.30
2011,08,07,15,01,17.10
2011,08,07,15,02,17.00
2011,08,07,15,03,17.00
2011,08,07,15,04,16.80
2011,08,07,15,05,16.70
2011,08,07,15,06,16.70
2011,08,07,15,07,16.80
2011,08,07,15,08,16.90
2011,08,07,15,09,17.00
2011,08,07,15,10,17.20
2011,08,07,15,11,17.20
2011,08,07,15,12,17.10
2011,08,07,15,13,17.00
2011,08,07,15,14,16.80
2011,08,07,15,15,16.70
2011,08,07,15,16,16.60
2011,08,07,15,17,16.50
2011,08,07,15,18,16.30
2011,08,07,15,19,16.20
2011,08,07,15,20,16.20
2011,08,07,15,21,16.30
2011,08,07,15,22,16.20
2011,08,07,15,23,16.10
2011,08,07,15,24,16.10
2011,08,07,15,25,16.10
2011,08,07,15,26,16.20
2011,08,07,15,27,16.30
2011,08,07,15,28,16.40
2011,08,07,15,29,16.70
2011,08,07,15,30,16.80
2011,08,07,15,31,16.90
2011,08,07,15,32,16.90
2011,08,07,15,33,16.80
2011,08,07,15,34,16.70
2011,08,07,15,35,16.60
2011,08,07,15,36,16.50
2011,08,07,15,37,16.40
2011,08,07,15,38,16.60
2011,08,07,15,39,16.70
2011,08,07,15,40,16.80
2011,08,07,15,41,16.70
2011,08,07,15,42,16.70
2011,08,07,15,43,16.80
2011,08,07,15,44,16.90
2011,08,07,15,45,17.10
2011,08,07,15,46,17.30
2011,08,07,15,47,17.40
2011,08,07,15,48,17.50
2011,08,07,15,49,17.60
2011,08,07,15,50,17.70
2011,08,07,15,51,17.70
2011,08,07,15,52,17.70
2011,08,07,15,53,17.70
2011,08,07,15,54,17.60
2011,08,07,15,55,17.60
2011,08,07,15,56,17.70
2011,08,07,15,57,17.90
2011,08,07,15,58,18.00
2011,08,07,15,59,18.10
2011,08,07,16,00,18.10
2011,08,07,16,01,17.80
2011,08,07,16,02,17.50
2011,08,07,16,03,17.20
2011,08,07,16,04,16.90
2011,08,07,16,05,16.60
2011,08,07,16,06,16.40
2011,08,07,16,07,16.30
2011,08,07,16,08,16.20
2011,08,07,16,09,16.20
2011,08,07,16,10,16.30
2011,08,07,16,11,16.50
2011,08,07,16,12,16.60
2011,08,07,16,13,16.80
2011,08,07,16,14,17.00
2011,08,07,16,15,17.20
2011,08,07,16,16,17.30
2011,08,07,16,17,17.50
2011,08,07,16,18,17.50
2011,08,07,16,19,17.50
2011,08,07,16,20,17.60
2011,08,07,16,21,17.60
2011,08,07,16,22,17.70
2011,08,07,16,23,17.70
2011,08,07,16,24,17.50
2011,08,07,16,25,17.40
2011,08,07,16,26,17.40
2011,08,07,16,27,17.30
2011,08,07,16,28,17.10
2011,08,07,16,29,16.90
2011,08,07,16,30,16.70
2011,08,07,16,31,16.60
2011,08,07,16,32,16.50
2011,08,07,16,33,16.30
2011,08,07,16,34,16.10
2011,08,07,16,35,16.00
2011,08,07,16,36,15.80
2011,08,07,16,37,15.70
2011,08,07,16,38,15.60
2011,08,07,16,39,15.40
2011,08,07,16,40,15.30
2011,08,07,16,41,15.30
2011,08,07,16,42,15.40
2011,08,07,16,43,15.50
2011,08,07,16,44,15.60
2011,08,07,16,45,15.50
2011,08,07,16,46,15.40
2011,08,07,16,47,15.20
2011,08,07,16,48,15.10
2011,08,07,16,49,15.00
2011,08,07,16,50,14.80
2011,08,07,16,51,14.80
2011,08,07,16,52,14.80
2011,08,07,16,53,14.80
2011,08,07,16,54,14.80
2011,08,07,16,55,14.80
2011,08,07,16,56,14.90
2011,08,07,16,57,14.90
2011,08,07,16,58,14.80
2011,08,07,16,59,14.90
2011,08,07,17,00,15.00
2011,08,07,17,01,15.10
2011,08,07,17,02,15.10
2011,08,07,17,03,15.10
2011,08,07,17,04,15.10
2011,08,07,17,05,15.10
2011,08,07,17,06,15.10
2011,08,07,17,07,15.10
2011,08,07,17,08,15.20
2011,08,07,17,09,15.20
2011,08,07,17,10,15.20
2011,08,07,17,11,15.30
2011,08,07,17,12,15.40
2011,08,07,17,13,15.50
2011,08,07,17,14,15.60
2011,08,07,17,15,15.60
2011,08,07,17,16,15.70
2011,08,07,17,17,15.80
2011,08,07,17,18,15.80
2011,08,07,17,19,16.00